This demonstration page uses our WeatherBlox Daily Observations layout. Learn more.

Left ArrowRight Arrow

40.92945, -100.16068

Hourly Observations for February 17, 2020

Temp ( °F °C ) Dew Point ( °F °C ) Humidity (%) Winds ( mph kmh ) Pressure ( in mb ) Visibility ( mi km ) Precip ( " mm )
12:15 am 00:15 Cloudy 43 5.9 28 -2.4 56 56 SSW 9 15 29.84 1010 10 16 N/A
12:35 am 00:35 Cloudy 43 6 29 -1.4 59 59 SSW 9 15 29.85 1011 10 16 N/A
12:55 am 00:55 Cloudy 44 6.4 31 -0.6 61 61 SSW 12 19 29.83 1010 10 16 N/A
1:15 am 01:15 Cloudy 44 6.4 32 -0.2 63 63 SSW 7 11 29.82 1010 10 16 N/A
1:35 am 01:35 Cloudy 43 6.3 33 0.3 66 66 SSW 10 17 29.82 1010 10 16 N/A
1:55 am 01:55 Cloudy 43 5.9 33 0.4 68 68 SSW 9 15 29.82 1010 10 16 N/A
2:15 am 02:15 Mostly Cloudy 42 5.6 32 0.1 68 68 SSW 8 13 29.82 1010 10 16 N/A
2:35 am 02:35 Partly Cloudy 41 4.8 32 undefined 71 71 SW 7 11 29.81 1009 10 16 N/A
2:55 am 02:55 Clear 39 4.1 32 undefined 75 75 WSW 7 11 29.82 1010 10 16 N/A
3:15 am 03:15 Clear 40 4.6 33 0.6 76 76 WSW 8 13 29.81 1010 10 16 N/A
3:35 am 03:35 Clear 41 4.8 34 1 77 77 W 8 13 29.80 1009 10 16 N/A
3:55 am 03:55 Clear 40 4.2 34 0.9 79 79 W 8 13 29.81 1009 10 16 N/A
4:15 am 04:15 Clear 39 3.9 33 0.6 79 79 W 8 13 29.80 1009 10 16 N/A
4:35 am 04:35 Clear 37 2.8 33 0.3 84 84 SSW 7 11 29.81 1009 10 16 N/A
4:55 am 04:55 Clear 40 4.7 35 1.6 81 81 SSW 9 15 29.79 1009 10 16 N/A
5:15 am 05:15 Clear 40 4.4 35 1.5 82 82 WSW 3 6 29.80 1009 10 16 N/A
5:35 am 05:35 Clear 37 2.8 33 0.5 85 85 N 5 7 29.83 1010 10 16 N/A
5:55 am 05:55 Clear 38 3.2 34 0.9 85 85 N N/A 29.83 1010 10 16 N/A
6:15 am 06:15 Clear 35 1.7 33 0.3 91 91 N N/A 29.84 1010 10 16 N/A
6:35 am 06:35 Partly Cloudy 34 0.9 32 -0.1 93 93 W 8 13 29.86 1011 10 16 N/A
6:55 am 06:55 Clear 33 0.7 31 -0.3 93 93 WSW 7 11 29.85 1011 10 16 N/A
7:15 am 07:15 Clear 33 0.6 31 -0.3 94 94 WSW 6 9 29.85 1011 10 16 N/A
7:35 am 07:35 Sunny 33 0.5 32 -0.2 95 95 W 9 15 29.85 1011 10 16 N/A
7:55 am 07:55 Sunny 35 1.5 31 -0.3 88 88 W 12 19 29.86 1011 10 16 N/A
8:15 am 08:15 Sunny 36 2 31 -0.5 84 84 W 10 17 29.85 1011 10 16 N/A
8:35 am 08:35 Sunny 36 2.3 30 -1 79 79 WNW 16 26 29.86 1011 10 16 N/A
8:55 am 08:55 Sunny 37 2.6 31 -0.6 80 80 WNW 17 28 29.88 1012 10 16 N/A
9:15 am 09:15 Sunny 38 3.1 31 -0.7 76 76 NW 17 28 29.89 1012 10 16 N/A
9:35 am 09:35 Sunny 39 4.1 31 -0.6 72 72 NNW 16 26 29.89 1012 10 16 N/A
9:55 am 09:55 Sunny 42 5.5 28 -2 59 59 N 16 26 29.89 1012 10 16 N/A
10:15 am 10:15 Partly Cloudy 43 6.1 30 -1.1 60 60 NNW 21 33 29.90 1012 10 16 N/A
10:35 am 10:35 Mostly Cloudy 43 6.1 31 -0.8 62 62 N 17 28 29.91 1013 10 16 N/A
10:55 am 10:55 Mostly Cloudy 43 6.1 32 -0.1 65 65 NNW 16 26 29.91 1013 10 16 N/A
11:15 am 11:15 Mostly Cloudy 43 6 32 undefined 66 66 NNW 24 39 29.94 1014 10 16 N/A
11:35 am 11:35 Cloudy 43 5.9 32 undefined 66 66 N 22 35 29.95 1014 10 16 N/A
11:55 am 11:55 Cloudy 42 5.8 32 undefined 67 67 N 22 35 29.96 1015 10 16 N/A
12:15 pm 12:15 Cloudy 41 5.1 32 undefined 70 70 NNW 20 31 29.98 1015 10 16 N/A
12:35 pm 12:35 Cloudy 40 4.5 32 undefined 73 73 N 15 24 29.98 1015 10 16 N/A
12:55 pm 12:55 Cloudy 40 4.4 32 undefined 73 73 NNW 17 28 29.99 1016 10 16 N/A
1:15 pm 13:15 Cloudy 40 4.7 32 0.2 73 73 NNW 14 22 29.98 1015 10 16 N/A
1:35 pm 13:35 Cloudy 43 6.1 33 0.3 67 67 NNW 17 28 29.96 1014 10 16 N/A
1:55 pm 13:55 Mostly Cloudy 44 6.5 32 0.1 64 64 NNW 16 26 29.95 1014 10 16 N/A
2:15 pm 14:15 Mostly Cloudy 44 6.5 31 -0.5 61 61 NNW 16 26 29.95 1014 10 16 N/A
2:35 pm 14:35 Mostly Cloudy 44 6.7 30 -1 58 58 NNW 20 31 29.95 1014 10 16 N/A
2:55 pm 14:55 Mostly Cloudy 44 6.6 30 -1 59 59 N 15 24 29.96 1015 10 16 N/A
3:15 pm 15:15 Cloudy 43 6.3 29 -1.4 58 58 N 15 24 29.97 1015 10 16 N/A
3:35 pm 15:35 Cloudy 44 6.4 30 -1.2 59 59 NNW 17 28 29.97 1015 10 16 N/A
3:55 pm 15:55 Mostly Cloudy 43 6.3 29 -1.5 58 58 N 17 28 30.00 1016 10 16 N/A
4:15 pm 16:15 Partly Cloudy 44 6.5 29 -1.5 57 57 N 16 26 29.98 1015 10 16 N/A
4:35 pm 16:35 Sunny 43 6.1 29 -1.6 58 58 N 22 35 30.00 1016 10 16 N/A
4:55 pm 16:55 Sunny 41 5.2 29 -1.5 62 62 N 21 33 30.01 1016 10 16 N/A
5:15 pm 17:15 Sunny 39 4 28 -2.2 64 64 N 23 37 30.02 1017 10 16 N/A
5:35 pm 17:35 Sunny 37 2.6 27 -2.8 68 68 N 20 31 30.04 1017 10 16 N/A
5:55 pm 17:55 Sunny 36 2.3 27 -2.9 69 69 N 21 33 30.06 1018 10 16 N/A
6:15 pm 18:15 Sunny 35 1.5 27 -3 72 72 N 18 30 30.08 1019 10 16 N/A
6:35 pm 18:35 Clear 33 0.6 26 -3.2 76 76 N 15 24 30.10 1019 10 16 N/A
6:55 pm 18:55 Clear 32 0.1 26 -3.1 79 79 N 18 30 30.13 1020 10 16 N/A
7:15 pm 19:15 Clear 32 undefined 26 -3.1 80 80 N 14 22 30.15 1021 10 16 N/A
7:35 pm 19:35 Partly Cloudy 32 -0.1 27 -3 81 81 N 17 28 30.16 1021 10 16 N/A
7:55 pm 19:55 Mostly Cloudy 32 -0.1 27 -3 81 81 N 13 20 30.18 1022 10 16 N/A
8:15 pm 20:15 Cloudy 32 undefined 27 -2.9 81 81 N 17 28 30.20 1023 10 16 N/A
8:35 pm 20:35 Mostly Cloudy 32 -0.2 26 -3.3 80 80 N 10 17 30.20 1023 10 16 N/A
8:55 pm 20:55 Partly Cloudy 30 -0.9 26 -3.6 82 82 NNW 7 11 30.22 1023 10 16 N/A
9:15 pm 21:15 Mostly Cloudy 29 -1.7 25 -4 85 85 NW 8 13 30.24 1024 10 16 N/A
9:35 pm 21:35 Partly Cloudy 29 -1.5 25 -3.8 85 85 NW 8 13 30.24 1024 10 16 N/A
9:55 pm 21:55 Partly Cloudy 29 -1.7 25 -4 85 85 NNW 6 9 30.24 1024 10 16 N/A
10:15 pm 22:15 Clear 28 -2.5 24 -4.2 88 88 NW 6 9 30.26 1025 10 16 N/A
10:35 pm 22:35 Clear 27 -3 24 -4.5 90 90 NW 7 11 30.29 1026 10 16 N/A
10:55 pm 22:55 Clear 26 -3.1 24 -4.6 90 90 NNW 8 13 30.30 1026 10 16 N/A
11:15 pm 23:15 Clear 27 -2.6 24 -4.5 87 87 N 7 11 30.30 1026 10 16 N/A
11:35 pm 23:35 Clear 28 -2.5 24 -4.3 88 88 NNW 8 13 30.31 1027 10 16 N/A
11:55 pm 23:55 Clear 28 -2.5 24 -4.3 88 88 N 7 11 30.32 1027 10 16 N/A

Powered by AerisWeather